Miscellaneous Local Product
Issued by NWS Hastings, NE

Home | Current Version | Previous Version | Graphics & Text | Print | Product List | Glossary On
Versions: 1 2 3 4 5 6 7 8 9 10 11 12 13 14 15 16 17 18 19 20 21 22 23 24 25 26 27 28 29 30 31 32 33 34 35 36 37 38 39 40 41 42 43 44 45 46 47 48 49 50
000
AXUS43 KGID 270702
MISGRI

GID CWA HOURLY WEATHER ROUNDUP
NATIONAL WEATHER SERVICE HASTINGS NE
200 AM CDT WED AUG 27 2014

NOTE: "FAIR" INDICATES FEW OR NO CLOUDS BELOW 12,000 FEET WITH NO
SIGNIFICANT WEATHER AND/OR OBSTRUCTIONS TO VISIBILITY.

...SOUTH CENTRAL NEBRASKA...

CITY           SKY/WX    TMP DP  RH WIND       PRES   REMARKS
GRAND ISLAND   CLOUDY    68  66  93 SE6       30.13S
HASTINGS       PTCLDY    69  65  86 E9        30.12F
KEARNEY        CLOUDY    70  66  88 E10       30.12F
ORD            MOCLDY    67  65  93 SE6       30.12S
YORK           PTCLDY    66 N/A N/A E7        30.13F
AURORA         MOCLDY    67  67 100 SE7       30.12F
LEXINGTON      CLOUDY    71  69  94 SE8       30.13S FOG
HOLDREGE       CLOUDY    69  68  94 CALM      30.12R FOG
HEBRON         PTCLDY    69  66  88 NE3       30.10F

...NEBRASKA PANHANDLE...

CITY           SKY/WX    TMP DP  RH WIND       PRES   REMARKS
CHADRON        PTCLDY    62  59  90 CALM      30.14R
ALLIANCE       PTCLDY    64  60  87 CALM      30.15R
SCOTTSBLUFF    PTCLDY    63  62  97 E3        30.15R
SIDNEY         PTCLDY    65  62  90 SE8       30.17F

...WESTERN AND NORTH CENTRAL NEBRASKA...

CITY           SKY/WX    TMP DP  RH WIND       PRES   REMARKS
VALENTINE      PTCLDY    66  64  93 SE7       30.13R
AINSWORTH      CLOUDY    66  65  97 S8        30.14S
ONEILL         CLOUDY    68  66  94 SE6       30.14S
BROKEN BOW     CLOUDY    69  67  93 SE10      30.13F FOG
IMPERIAL       CLOUDY    68  61  78 S13       30.15F
NORTH PLATTE   CLOUDY    69  67  93 SE14      30.13S
MCCOOK         RAIN      67  66  97 CALM      30.17R FOG

...EASTERN NEBRASKA...

CITY           SKY/WX    TMP DP  RH WIND       PRES   REMARKS
NORFOLK        MOCLDY    65  62  90 E5        30.13F
SO SIOUX CITY  MOCLDY    65  61  87 NE3       30.15S
TEKAMAH        MOCLDY    66  64  93 N5        30.13F
COLUMBUS       PTCLDY    66  63  88 E6        30.14S
ALBION         MOCLDY    65  63  90 SE5       30.13F
OMAHA EPPLEY   PTCLDY    71  64  78 CALM      30.13S
OFFUTT AFB     PTCLDY    69  68  99 E5        30.12S
MILLARD        PTCLDY    71  66  84 CALM      30.11F
LINCOLN        CLEAR     67  65  93 N6        30.13S
NEBRASKA CITY  MOCLDY    69  69 100 E5        30.12S THUNDER
BEATRICE       PTCLDY    68  68  98 NE6       30.10F
FALLS CITY     PTCLDY    73  70  90 NE5       30.09S

...NORTHERN KANSAS...

CITY           SKY/WX    TMP DP  RH WIND       PRES   REMARKS
GOODLAND       CLOUDY    65  64  97 SE8       30.15F
HILL CITY      CLOUDY    74  66  76 W12       30.12R
NORTON         LGT RAIN  68  63  83 NW9       30.12S
PHILLIPSBURG   MOCLDY    73  66  78 NE5       30.09S
SMITH CENTER   CLEAR     72  66  83 E8        30.09F
BELOIT         MOCLDY    73  68  83 E5        30.06F
HAYS           CLOUDY    73  64  73 SW6       30.11R
RUSSELL        CLOUDY    77  67  71 SE8       30.07F
CONCORDIA      PTCLDY    70  69  97 E3        30.08F
SALINA         MOCLDY    77  68  73 N8        30.08R THUNDER HAZE
TOPEKA         CLOUDY    79  75  87 E3        30.07F



USA.gov is the U.S. government's official web portal to all federal, state and local government web resources and services.